Content
SEND FEEDBACK

Daily
Averages
Monthly
Summary
United Kingdom

LONDON, ENGLAND


Home > Europe > United Kingdom > England
Elevation: 203 feet     Latitude: 51 09N     Longitude: 000 11W

WEATHER
 
SELECT A DAY
Number of Records: 294,722;   Date Range: 7/1/96 - 9/22/14
 
SHARE

PRINT THIS DATA

[ ← Previous Day ]
WEATHER ALMANAC - APRIL 8, 2013
[ Next Day → ]
[ °C ]   °F
Weather ElementAverageHighLow
Temperature42.1 °F50 °F (12:50 pm)35.6 °F (1:20 am)
Dewpoint30.9 °F33.8 °F (7:50 pm)26.6 °F (2:50 pm)
Humidity65.8 %81 % (5:20 am)40 % (3:20 pm)
Barometer29.66 in29.86 in (12:50 am)29.53 in (11:50 pm)
Wind Speed10.4 mph15 mph (5:50 pm)
Weather ElementAverage
Visibility5.5 mi
Wind DirectionENE (73.8 °)

Weather ElementTotal
Precipitation---
Heating Degree Days22.2 (Base 65)
Averaged from 47 records on April 8, 2013
WEATHER CONDITIONS BREAKOUT
WIND DIRECTION BREAKOUT
WEATHER BY HOUR - APRIL 8, 2013
[ °C ]   °F
Local TimeTemperatureDewpointHumidityBarometerVisibilityWind DirectionWind SpeedGust SpeedPrecipitationEventsConditions
12:50 AM37.4 °F28.4 °F70 %29.86 inENE (70°)9.2 mphClear
1:20 AM35.6 °F28.4 °F75 %29.83 inENE (70°)9.2 mphClear
1:50 AM37.4 °F28.4 °F70 %29.83 inEast (80°)10.4 mphClear
2:20 AM37.4 °F28.4 °F70 %29.80 inENE (70°)10.4 mphClear
2:50 AM37.4 °F28.4 °F70 %29.80 inENE (70°)10.4 mphClear
3:20 AM37.4 °F28.4 °F70 %29.77 inENE (70°)10.4 mphClear
3:50 AM37.4 °F28.4 °F70 %29.77 inEast (80°)10.4 mphClear
4:20 AM37.4 °F30.2 °F75 %29.74 inEast (80°)10.4 mphClear
4:50 AM37.4 °F30.2 °F75 %29.74 inEast (80°)9.2 mphClear
5:20 AM35.6 °F30.2 °F81 %29.74 inENE (70°)8.1 mphClear
5:50 AM37.4 °F30.2 °F75 %29.71 in5.6 miEast (80°)6.9 mph
6:20 AM37.4 °F30.2 °F75 %29.71 in4.3 miEast (80°)6.9 mph
6:50 AM37.4 °F30.2 °F75 %29.71 in4.3 miEast (100°)5.8 mph
7:20 AM37.4 °F30.2 °F75 %29.71 in4.3 miEast (90°)8.1 mph
7:50 AM37.4 °F30.2 °F75 %29.71 in4.3 miENE (70°)9.2 mph
8:20 AM39.2 °F30.2 °F70 %29.68 in5.0 miENE (70°)9.2 mph
8:50 AM39.2 °F30.2 °F70 %29.68 in5.0 miENE (70°)11.5 mph
9:20 AM41.0 °F30.2 °F65 %29.68 in5.6 miEast (80°)11.5 mph
9:50 AM42.8 °F32.0 °F66 %29.68 in6.2 miENE (70°)12.7 mphPartly Cloudy
10:20 AM42.8 °F32.0 °F66 %29.68 inENE (70°)13.8 mphClear
10:50 AM44.6 °F32.0 °F61 %29.68 inENE (60°)12.7 mphClear
11:20 AM46.4 °F32.0 °F57 %29.65 inENE (70°)12.7 mphClear
11:50 AM48.2 °F32.0 °F54 %29.65 inENE (70°)12.7 mphClear
12:20 PM48.2 °F32.0 °F54 %29.65 inEast (80°)11.5 mphClear
12:50 PM50.0 °F32.0 °F50 %29.65 in6.2 miENE (70°)9.2 mphPartly Cloudy
1:20 PM50.0 °F30.2 °F47 %29.62 in6.2 miEast (100°)11.5 mphScattered Clouds
1:50 PM48.2 °F30.2 °F50 %29.62 in6.2 miENE (70°)12.7 mphScattered Clouds
2:20 PM48.2 °F30.2 °F50 %29.62 in6.2 miEast (80°)9.2 mphPartly Cloudy
2:50 PM48.2 °F26.6 °F43 %29.62 inEast (90°)10.4 mphClear
3:20 PM50.0 °F26.6 °F40 %29.62 inEast (80°)12.7 mphClear
3:50 PM48.2 °F26.6 °F43 %29.59 inEast (80°)11.5 mphClear
4:20 PM48.2 °F32.0 °F54 %29.59 inENE (60°)12.7 mphClear
4:50 PM48.2 °F32.0 °F54 %29.59 inENE (70°)12.7 mphClear
5:20 PM48.2 °F30.2 °F50 %29.59 inENE (70°)13.8 mphClear
5:50 PM46.4 °F32.0 °F57 %29.59 inENE (70°)15.0 mphClear
6:20 PM44.6 °F32.0 °F61 %29.59 in6.2 miENE (70°)12.7 mphPartly Cloudy
6:50 PM44.6 °F32.0 °F61 %29.59 in6.2 miENE (70°)11.5 mphPartly Cloudy
7:20 PM42.8 °F32.0 °F66 %29.59 in6.2 miENE (70°)9.2 mphPartly Cloudy
7:50 PM41.0 °F33.8 °F76 %29.59 inENE (70°)9.2 mphClear
8:20 PM41.0 °F33.8 °F76 %29.59 in5.6 miENE (70°)8.1 mph
8:50 PM41.0 °F33.8 °F76 %29.59 in5.6 miENE (70°)8.1 mph
9:20 PM41.0 °F33.8 °F76 %29.59 in5.6 miENE (70°)8.1 mph
9:50 PM41.0 °F33.8 °F76 %29.59 in5.0 miENE (70°)8.1 mphMostly Cloudy
10:20 PM39.2 °F33.8 °F81 %29.59 in4.3 miENE (60°)9.2 mphOvercast
10:50 PM39.2 °F33.8 °F81 %29.56 in5.6 miENE (70°)9.2 mphMostly Cloudy
11:20 PM39.2 °F33.8 °F81 %29.56 in5.6 miENE (70°)9.2 mphMostly Cloudy
11:50 PM39.2 °F33.8 °F81 %29.53 in5.6 miENE (70°)9.2 mphScattered Clouds
Hourly data recorded from EGKK, located miles away from London, England







STORIES FROM OUR PARTNERS